Time,TemperatureF,DewpointF,PressureIn,WindDirection,WindDirectionDegrees,WindSpeedMPH,WindSpeedGustMPH,Humidity,HourlyPrecipIn,Conditions,Clouds,dailyrainin,SolarRadiationWatts/m^2,SoftwareType,DateUTC
2013-06-22 09:10:00,63.0,60.0,-100.00,ESE,105,3.0,9.0,89,0.00,,,0.05,124.000000,,2013-06-22 14:10:00,
2013-06-22 10:02:00,63.0,60.0,-100.00,ESE,105,3.0,9.0,89,0.00,,,0.05,124.000000,,2013-06-22 15:02:00,
2013-06-22 10:10:00,63.0,61.0,-100.00,SE,136,3.0,11.0,92,0.00,,,0.05,81.000000,,2013-06-22 15:10:00,
2013-06-22 10:43:00,63.0,61.0,-100.00,SE,136,3.0,11.0,92,0.00,,,0.05,81.000000,,2013-06-22 15:43:00,
2013-06-22 10:53:00,63.0,61.0,-100.00,SE,136,3.0,11.0,92,0.00,,,0.05,81.000000,,2013-06-22 15:53:00,
2013-06-22 11:02:00,63.0,61.0,-100.00,SE,136,3.0,11.0,92,0.00,,,0.05,81.000000,,2013-06-22 16:02:00,
2013-06-22 11:10:00,65.0,61.0,-100.00,SSW,205,1.0,8.0,87,0.00,,,0.05,120.000000,,2013-06-22 16:10:00,
2013-06-22 11:43:00,65.0,61.0,-100.00,SSW,205,1.0,8.0,87,0.00,,,0.05,120.000000,,2013-06-22 16:43:00,
2013-06-22 11:52:00,65.0,61.0,-100.00,SSW,205,1.0,8.0,87,0.00,,,0.05,120.000000,,2013-06-22 16:52:00,
2013-06-22 12:02:00,65.0,61.0,-100.00,SSW,205,1.0,8.0,87,0.00,,,0.05,120.000000,,2013-06-22 17:02:00,
2013-06-22 12:10:00,69.0,63.0,-100.00,SSE,164,0.0,4.0,80,0.00,,,0.04,204.000000,,2013-06-22 17:10:00,
2013-06-22 12:43:00,69.0,63.0,-100.00,SSE,164,0.0,4.0,80,0.00,,,0.04,204.000000,,2013-06-22 17:43:00,
2013-06-22 12:52:00,69.0,63.0,-100.00,SSE,164,0.0,4.0,80,0.00,,,0.04,204.000000,,2013-06-22 17:52:00,
2013-06-22 13:02:00,69.0,63.0,-100.00,SSE,164,0.0,4.0,80,0.00,,,0.04,204.000000,,2013-06-22 18:02:00,
2013-06-22 13:10:00,72.0,64.0,-100.00,North,7,1.0,5.0,75,0.00,,,0.00,368.000000,,2013-06-22 18:10:00,
2013-06-22 13:34:00,72.0,64.0,-100.00,North,7,1.0,5.0,75,0.00,,,0.00,368.000000,,2013-06-22 18:34:00,
2013-06-22 13:43:00,72.0,64.0,-100.00,North,7,1.0,5.0,75,0.00,,,0.00,368.000000,,2013-06-22 18:43:00,
2013-06-22 13:52:00,72.0,64.0,-100.00,North,7,1.0,5.0,75,0.00,,,0.00,368.000000,,2013-06-22 18:52:00,
2013-06-22 14:01:00,72.0,64.0,-100.00,North,7,1.0,5.0,75,0.00,,,0.00,368.000000,,2013-06-22 19:01:00,
2013-06-22 14:10:00,72.0,64.0,-100.00,NNE,23,4.0,8.0,77,0.00,,,0.00,343.000000,,2013-06-22 19:10:00,
2013-06-22 14:43:00,72.0,64.0,-100.00,NNE,23,4.0,8.0,77,0.00,,,0.00,343.000000,,2013-06-22 19:43:00,
2013-06-22 14:53:00,72.0,64.0,-100.00,NNE,23,4.0,8.0,77,0.00,,,0.00,343.000000,,2013-06-22 19:53:00,
2013-06-22 15:02:00,72.0,64.0,-100.00,NNE,23,4.0,8.0,77,0.00,,,0.00,343.000000,,2013-06-22 20:02:00,
2013-06-22 15:10:00,75.0,65.0,-100.00,SE,142,2.0,7.0,71,0.00,,,0.00,455.000000,,2013-06-22 20:10:00,
2013-06-22 15:43:00,75.0,65.0,-100.00,SE,142,2.0,7.0,71,0.00,,,0.00,455.000000,,2013-06-22 20:43:00,
2013-06-22 15:53:00,75.0,65.0,-100.00,SE,142,2.0,7.0,71,0.00,,,0.00,455.000000,,2013-06-22 20:53:00,
2013-06-22 16:01:00,75.0,65.0,-100.00,SE,142,2.0,7.0,71,0.00,,,0.00,455.000000,,2013-06-22 21:01:00,
2013-06-22 16:10:00,73.0,65.0,-100.00,ESE,104,1.0,7.0,75,0.00,,,0.00,247.000000,,2013-06-22 21:10:00,
2013-06-22 16:43:00,73.0,65.0,-100.00,ESE,104,1.0,7.0,75,0.00,,,0.00,247.000000,,2013-06-22 21:43:00,
2013-06-22 16:53:00,73.0,65.0,-100.00,ESE,104,1.0,7.0,75,0.00,,,0.00,247.000000,,2013-06-22 21:53:00,
2013-06-22 17:02:00,73.0,65.0,-100.00,ESE,104,1.0,7.0,75,0.00,,,0.00,247.000000,,2013-06-22 22:02:00,
2013-06-22 17:10:00,71.0,66.0,-100.00,NW,319,0.0,2.0,85,0.00,,,0.00,69.000000,,2013-06-22 22:10:00,
2013-06-22 17:43:00,71.0,66.0,-100.00,NW,319,0.0,2.0,85,0.00,,,0.00,69.000000,,2013-06-22 22:43:00,
2013-06-22 17:52:00,71.0,66.0,-100.00,NW,319,0.0,2.0,85,0.00,,,0.00,69.000000,,2013-06-22 22:52:00,
2013-06-22 18:01:00,71.0,66.0,-100.00,NW,319,0.0,2.0,85,0.00,,,0.00,69.000000,,2013-06-22 23:01:00,
2013-06-22 18:10:00,71.0,67.0,-100.00,SE,132,1.0,4.0,87,0.00,,,0.00,74.000000,,2013-06-22 23:10:00,
2013-06-22 18:34:00,71.0,67.0,-100.00,SE,132,1.0,4.0,87,0.00,,,0.00,74.000000,,2013-06-22 23:34:00,
2013-06-22 18:43:00,71.0,67.0,-100.00,SE,132,1.0,4.0,87,0.00,,,0.00,74.000000,,2013-06-22 23:43:00,
2013-06-22 18:52:00,71.0,67.0,-100.00,SE,132,1.0,4.0,87,0.00,,,0.00,74.000000,,2013-06-22 23:52:00,
2013-06-22 19:01:00,71.0,67.0,-100.00,SE,132,1.0,4.0,87,0.00,,,0.00,74.000000,,2013-06-23 00:01:00,
2013-06-22 20:10:00,70.0,65.0,-100.00,SSE,150,2.0,9.0,83,-99.99,,,0.00,95.000000,,2013-06-23 01:10:00,
2013-06-22 20:32:00,70.0,65.0,-100.00,SSE,150,2.0,9.0,83,-99.99,,,0.00,95.000000,,2013-06-23 01:32:00,
2013-06-22 20:42:00,70.0,65.0,-100.00,SSE,150,2.0,9.0,83,-99.99,,,0.00,95.000000,,2013-06-23 01:42:00,
2013-06-22 20:52:00,70.0,65.0,-100.00,SSE,150,2.0,9.0,83,-99.99,,,0.00,95.000000,,2013-06-23 01:52:00,
2013-06-22 21:01:00,70.0,65.0,-100.00,SSE,150,2.0,9.0,83,-99.99,,,0.00,95.000000,,2013-06-23 02:01:00,
2013-06-22 21:10:00,67.0,64.0,-100.00,SE,140,3.0,13.0,89,0.00,,,0.00,5.000000,,2013-06-23 02:10:00,
2013-06-22 21:31:00,67.0,64.0,-100.00,SE,140,3.0,13.0,89,0.00,,,0.00,5.000000,,2013-06-23 02:31:00,
2013-06-22 21:41:00,67.0,64.0,-100.00,SE,140,3.0,13.0,89,0.00,,,0.00,5.000000,,2013-06-23 02:41:00,
2013-06-22 21:52:00,67.0,64.0,-100.00,SE,140,3.0,13.0,89,0.00,,,0.00,5.000000,,2013-06-23 02:52:00,
2013-06-22 22:01:00,67.0,64.0,-100.00,SE,140,3.0,13.0,89,0.00,,,0.00,5.000000,,2013-06-23 03:01:00,
2013-06-22 22:10:00,65.0,63.0,-100.00,SSE,149,3.0,10.0,92,0.00,,,0.00,0.000000,,2013-06-23 03:10:00,
2013-06-22 22:31:00,65.0,63.0,-100.00,SSE,149,3.0,10.0,92,0.00,,,0.00,0.000000,,2013-06-23 03:31:00,
2013-06-22 22:41:00,65.0,63.0,-100.00,SSE,149,3.0,10.0,92,0.00,,,0.00,0.000000,,2013-06-23 03:41:00,
2013-06-22 22:52:00,65.0,63.0,-100.00,SSE,149,3.0,10.0,92,0.00,,,0.00,0.000000,,2013-06-23 03:52:00,
2013-06-22 23:01:00,65.0,63.0,-100.00,SSE,149,3.0,10.0,92,0.00,,,0.00,0.000000,,2013-06-23 04:01:00,
2013-06-22 23:10:00,64.0,62.0,-100.00,SSE,162,2.0,8.0,94,0.00,,,0.00,0.000000,,2013-06-23 04:10:00,
2013-06-22 23:31:00,64.0,62.0,-100.00,SSE,162,2.0,8.0,94,0.00,,,0.00,0.000000,,2013-06-23 04:31:00,
2013-06-22 23:42:00,64.0,62.0,-100.00,SSE,162,2.0,8.0,94,0.00,,,0.00,0.000000,,2013-06-23 04:42:00,
2013-06-22 23:52:00,64.0,62.0,-100.00,SSE,162,2.0,8.0,94,0.00,,,0.00,0.000000,,2013-06-23 04:52:00,